Tracking 18186 objects as of 29-March-2017
HD Live streaming from Space Station
objects crossing your sky now

COSMOS 1629

Track COSMOS 1629 now!
COSMOS 1629 is classified as:


NORAD ID: 15574
Int'l Code: 1985-016A
Perigee: 35,799.8 km
Apogee: 35,836.3 km
Inclination: 14.3 °
Period: 1,437.3 minutes
Semi major axis: 42189 km
RCS: 1.2589 m2 (large)
Launch date: February 21, 1985
Source: Commonwealth of Independent States (former USSR) (CIS)
Launch site: TYURATAM MISSILE AND SPACE COMPLEX (TTMTR)
Your satellite tracking list
Your tracking list is empty





NASA's NSSDC Master Catalog

Two Line Element Set (TLE):
1 15574U 85016A   17087.52836341 +.00000088 +00000-0 +00000-0 0  9993
2 15574 014.3236 344.9043 0004317 198.4352 049.6957 01.00185180116683
Source of the keplerian elements: AFSPC